RH
57 57 64 69 74 78 82 85 91 89 89 89 89 86 82 81 82 84 89 89 85 82 81 81 83 83 62 17 8 46 78 78 54 25 18 18 19 21 20 22 22 23 20 17 16 33 42
56 57 58 62 70 73 78 82 84 91 89 89 89 88 88 85 85 85 87 88 87 84 82 82 83 86 51 8 10 39 44 42 33 24 18 14 15 17 18 22 20 16 16 20 36 37 44
56 56 56 59 64 73 74 78 82 87 93 89 89 88 89 87 86 87 86 87 88 86 82 82 83 78 62 9 27 25 25 25 31 21 19 17 13 14 17 19 17 15 16 28 47 44 39
56 57 55 59 65 71 74 77 78 80 90 92 89 88 89 90 90 90 89 89 88 84 82 82 82 83 35 22 31 26 20 13 25 25 16 17 16 16 17 16 15 15 16 18 51 49 43
58 57 57 56 63 68 74 77 77 79 85 88 91 88 88 90 91 90 90 90 86 83 83 82 85 66 24 29 22 17 15 8 14 21 18 14 16 16 16 17 17 19 16 18 29 56 52
62 58 57 56 58 63 68 74 78 80 81 89 93 88 88 90 90 91 92 87 80 83 78 76 65 43 21 9 19 16 18 12 13 20 17 18 19 19 19 17 20 20 19 34 49 63 60
66 61 58 57 58 58 63 70 76 82 81 86 89 89 88 89 89 91 90 64 63 70 78 41 29 16 15 20 21 19 17 11 12 14 17 18 17 19 18 19 16 17 20 44 62 58 66
70 67 62 60 58 58 59 67 74 81 80 86 85 92 88 88 89 90 86 52 60 60 73 55 50 39 28 23 29 21 13 12 15 14 18 19 19 17 16 17 18 18 30 51 61 60 61
73 71 67 62 59 58 59 64 73 76 80 83 88 92 88 89 89 82 80 54 48 64 74 46 52 50 39 30 27 24 12 12 14 16 19 18 15 17 17 19 20 21 23 51 48 63 60
75 76 70 66 62 60 60 64 73 72 78 80 88 90 88 87 70 77 66 62 58 72 43 24 42 42 39 33 27 22 11 14 14 14 20 17 16 18 18 18 18 22 18 37 62 57 63
75 76 74 70 69 68 68 65 73 75 78 81 88 91 88 85 80 72 62 63 58 77 21 21 49 30 37 22 15 18 13 15 18 17 19 17 22 21 21 18 19 29 36 49 51 48 52
74 76 75 74 74 71 70 70 75 78 79 83 87 90 86 84 90 75 68 63 81 54 25 34 38 42 39 23 14 14 13 14 16 19 18 17 15 15 14 16 24 35 42 32 28 35 39
76 74 76 77 76 72 70 69 76 79 79 83 87 90 89 70 69 70 68 80 64 44 21 35 37 31 28 24 19 16 17 21 18 26 23 18 16 14 13 24 29 23 25 40 38 42 38
75 75 78 77 77 74 73 71 76 80 81 83 91 94 90 78 75 73 68 78 48 26 28 24 23 27 23 20 18 18 19 20 20 20 21 19 20 15 14 17 24 25 18 26 26 32 42
72 74 76 78 79 76 74 73 77 81 84 85 91 96 88 82 84 74 72 84 51 31 19 22 19 25 20 16 18 20 23 18 20 21 21 23 21 15 16 14 14 20 21 25 50 58 50
72 74 76 80 81 77 75 75 79 80 82 86 98 93 81 80 84 70 85 76 59 42 43 19 24 23 23 18 24 25 22 20 18 19 19 25 26 20 18 18 19 18 25 31 38 49 48
76 76 76 79 83 78 76 76 78 80 81 87 99 90 76 81 75 68 85 72 52 32 36 37 23 22 20 21 24 24 23 23 18 20 20 23 25 24 20 23 20 20 25 38 38 46 38
80 81 79 80 82 79 77 78 80 81 84 95 98 89 86 76 73 75 78 61 55 36 31 38 29 22 25 27 28 28 28 24 23 28 24 28 37 34 22 22 18 18 25 28 27 41 64
79 82 80 80 82 79 78 78 81 83 87 98 97 88 94 81 58 86 68 60 40 28 21 29 35 28 28 38 38 35 35 31 32 29 36 34 39 33 24 21 19 25 26 34 43 48 56
79 81 80 81 82 79 79 80 82 82 87 98 98 93 99 93 76 64 60 53 52 27 21 17 29 34 39 39 40 40 37 32 37 38 66 51 43 39 31 28 25 32 31 29 28 32 56
79 82 83 83 81 79 78 79 81 84 90 99 99 87 78 96 88 83 56 43 37 30 19 29 35 34 41 45 40 44 34 38 35 55 40 43 45 41 38 30 34 36 33 38 44 48 39
77 82 84 83 81 79 79 79 81 84 88 99 100 90 87 73 74 86 86 46 34 28 20 35 37 34 40 41 38 46 37 40 40 37 38 40 46 40 43 37 38 49 50 48 53 58 61
76 81 85 84 80 79 75 78 80 83 90 98 94 88 94 80 73 72 74 65 30 37 28 39 43 43 42 35 38 40 45 47 43 41 45 45 50 44 42 35 32 42 40 46 52 53 53
79 81 83 82 81 77 77 76 81 84 88 97 96 96 97 86 63 54 44 56 46 44 40 49 48 45 43 37 38 37 38 42 45 52 43 48 50 50 48 38 60 37 44 38 53 53 54
82 84 84 82 79 78 78 79 82 85 84 98 95 99 96 95 59 52 46 51 52 49 57 56 54 52 44 45 45 45 49 42 38 48 46 42 51 57 64 47 42 44 48 47 42 52 58
84 85 83 81 81 81 79 82 82 85 86 96 97 97 97 97 76 49 49 42 60 65 61 60 53 49 54 53 49 58 60 47 42 35 37 43 49 50 66 56 48 39 36 34 36 50 57
87 84 82 81 82 83 84 83 82 84 84 95 98 95 94 94 81 88 82 48 60 65 64 60 50 48 54 53 53 58 56 41 45 48 47 51 53 50 56 57 47 36 33 35 38 38 58
85 83 82 83 84 85 84 84 84 84 85 93 97 96 93 92 85 82 81 83 68 68 64 60 51 49 54 54 52 56 56 50 50 41 44 46 56 54 57 53 56 38 36 38 45 60 58
85 84 84 84 86 86 86 85 87 87 88 90 99 96 94 94 84 78 77 82 76 75 66 63 58 53 57 59 59 59 58 58 55 50 52 44 47 50 48 46 70 66 60 59 53 58 59
Wind_Speed
14 16 16 17 18 17 18 20 21 9 8 8 10 10 12 14 14 14 13 14 15 17 18 18 18 18 7 4 8 1 5 7 9 1 6 6 6 5 5 4 4 5 5 5 8 7 12
14 15 16 17 17 17 18 17 19 19 10 8 9 10 10 12 14 14 14 14 14 15 18 17 16 16 1 5 1 5 6 5 4 4 6 6 6 5 3 3 6 3 4 6 9 9 10
16 14 15 16 16 16 17 16 16 18 20 10 8 9 10 10 13 14 15 14 14 15 18 16 11 6 1 14 6 3 5 2 4 4 5 3 5 4 4 3 3 1 3 3 17 10 5
14 16 14 14 14 15 16 16 15 16 18 14 9 9 10 10 11 13 14 15 17 18 18 12 4 4 9 3 0 8 3 3 3 3 1 2 4 1 3 1 3 1 2 2 7 12 6
14 16 15 14 13 16 16 15 14 16 15 18 11 8 9 11 11 13 15 17 18 10 3 4 2 2 10 3 4 5 8 6 7 2 3 4 4 2 2 2 1 3 2 2 4 17 1
16 15 15 14 15 15 17 16 15 12 15 15 19 9 8 9 11 12 15 19 7 3 5 3 3 3 5 2 2 2 5 6 5 6 4 2 3 2 2 4 5 3 4 4 4 9 19
19 17 15 14 14 15 17 17 15 11 14 15 22 9 8 9 10 10 8 5 1 3 3 9 6 4 4 7 3 2 4 7 5 3 6 3 4 8 10 7 3 3 4 6 4 5 7
20 19 17 15 14 15 16 17 14 11 14 15 15 13 8 9 9 8 2 2 4 3 10 15 15 10 6 1 5 2 9 8 6 6 6 4 7 10 7 7 4 5 7 5 6 8 7
20 19 18 17 15 15 16 17 16 14 13 14 13 21 7 9 10 2 1 5 8 7 5 7 8 7 7 11 7 6 11 5 6 7 7 7 2 9 7 5 6 5 7 10 7 11 8
20 19 18 18 17 16 15 16 17 15 15 13 14 24 6 9 1 2 3 5 8 2 3 6 6 8 8 7 5 7 8 5 3 13 10 6 5 6 5 6 8 7 10 15 19 8 4
20 20 18 18 17 14 13 15 16 14 16 12 14 20 5 2 3 3 3 10 9 3 4 4 4 4 6 10 7 6 4 3 9 8 7 7 9 7 5 7 10 1 9 16 11 6 6
20 20 19 18 17 15 13 13 14 14 15 10 12 11 4 1 1 5 9 11 3 1 9 4 7 6 8 4 2 4 4 3 4 6 1 4 1 5 5 6 8 17 19 9 4 3 3
20 20 20 19 17 16 14 13 13 14 14 9 12 13 7 3 3 2 5 2 4 6 3 6 6 6 6 6 4 4 7 5 6 5 4 2 4 1 3 11 9 2 5 4 2 3 2
21 20 21 20 18 17 14 13 13 12 15 7 11 18 7 4 1 2 3 3 6 8 6 2 5 11 7 6 3 4 10 9 2 4 5 7 6 7 5 7 10 9 3 5 5 4 3
24 21 21 21 19 18 15 12 13 12 11 6 12 2 2 4 8 3 2 9 8 7 4 7 6 8 4 4 5 6 6 11 6 8 5 6 3 1 0 3 4 5 3 3 8 3 2
25 23 21 20 20 18 15 12 12 13 10 2 3 3 4 6 10 3 3 8 6 5 4 3 6 5 8 9 6 5 10 6 5 10 2 5 5 2 2 2 10 2 9 4 2 4 3
25 24 20 20 20 19 16 13 11 12 10 2 4 4 1 9 5 4 8 8 6 9 7 5 5 5 5 8 5 6 12 2 6 5 3 4 2 2 0 4 6 4 4 6 5 2 2
24 24 21 20 21 19 16 14 12 11 6 3 4 4 4 9 6 4 10 8 4 7 5 7 3 3 7 6 4 4 8 5 6 7 9 1 4 5 2 1 0 1 4 4 3 4 2
25 23 22 21 21 20 16 14 13 10 8 1 2 3 4 1 8 5 4 11 4 5 5 2 6 4 3 7 6 4 5 2 4 5 8 7 2 5 2 1 2 6 3 6 7 3 4
25 23 22 22 22 20 17 14 13 11 9 3 4 5 4 4 1 6 13 5 11 8 11 7 4 4 4 4 3 5 4 1 3 3 5 8 4 4 6 4 4 5 3 3 3 3 7
23 22 22 22 22 20 17 14 14 9 4 3 3 6 5 7 10 5 7 5 5 9 7 5 1 4 7 6 4 6 4 4 4 3 4 4 6 4 7 4 6 5 5 4 4 5 1
22 21 23 22 21 19 17 15 14 11 6 4 4 3 2 4 13 13 5 12 6 4 4 4 4 6 5 8 6 7 8 3 5 2 3 3 4 3 9 8 10 10 9 12 8 9 13
21 21 21 22 20 18 16 14 13 12 10 3 3 3 1 5 11 12 6 5 13 3 8 6 2 4 5 6 5 7 6 7 8 7 4 4 7 3 4 2 5 6 2 3 5 3 11
20 21 22 21 19 17 15 14 15 16 13 1 4 4 2 4 8 13 11 8 9 6 9 4 3 4 1 18 16 13 17 16 15 11 3 8 6 3 4 1 1 3 4 4 13 6 5
19 19 21 20 17 16 14 13 15 16 18 6 6 4 2 3 7 9 15 4 6 9 6 5 2 2 10 2 8 7 6 7 7 10 8 5 7 6 5 2 1 1 6 9 8 4 6
18 21 20 17 15 15 12 14 14 15 17 5 5 5 1 3 3 1 7 12 4 2 3 2 2 1 4 4 5 5 3 4 2 3 5 10 10 6 3 4 5 2 6 6 6 4 12
20 20 18 16 14 13 12 13 12 12 12 4 4 5 2 1 5 1 4 8 5 2 2 1 4 3 1 3 5 4 3 2 4 6 4 4 4 5 3 3 2 2 6 7 4 5 19
19 17 16 14 13 12 13 14 14 11 14 2 4 5 3 2 9 6 3 3 0 2 3 3 3 1 3 7 4 3 4 2 4 2 3 4 5 3 3 4 4 3 6 5 3 8 19
17 15 14 12 12 14 14 12 12 11 12 4 4 3 0 2 6 6 15 16 10 2 1 1 1 3 4 7 3 5 4 2 3 3 2 2 3 6 2 2 2 2 2 2 7 18 15
Wind_Direction
329 325 332 337 342 334 343 352 354 286 292 298 307 319 322 324 327 326 323 323 326 324 322 326 324 326 342 1 257 58 54 103 152 168 154 152 156 138 186 207 164 232 260 208 357 35 72
317 323 324 323 331 333 333 333 342 347 288 292 304 310 311 321 324 323 320 320 320 317 315 321 323 319 308 290 82 112 96 129 197 189 173 158 181 187 171 221 199 214 252 26 9 49 85
307 311 316 320 321 330 327 329 331 342 336 279 288 292 302 319 319 316 317 317 314 308 306 309 317 303 131 244 120 284 322 219 182 190 162 210 153 174 167 198 240 261 280 131 21 350 89
295 299 305 312 319 321 325 322 328 324 338 313 280 297 309 311 312 313 315 312 305 303 294 289 287 263 251 220 85 294 163 239 209 214 259 169 152 196 226 180 32 136 86 189 32 2 31
280 288 295 304 314 316 316 318 317 321 330 336 282 287 301 307 312 315 316 307 307 317 240 131 129 246 263 322 265 248 183 192 146 154 288 123 142 160 104 161 324 19 202 82 121 19 212
270 275 284 293 304 309 312 314 310 317 319 328 329 281 298 306 310 318 320 304 296 291 111 173 271 306 250 223 263 195 188 178 138 138 100 105 66 117 107 181 213 206 134 76 42 20 68
273 267 272 282 292 298 305 309 312 318 314 335 339 273 291 299 311 328 345 347 255 194 222 208 189 261 296 308 252 215 182 156 129 144 164 169 167 201 198 195 171 143 101 115 109 133 77
266 267 266 270 280 290 296 303 306 310 312 320 329 298 286 300 311 328 73 268 65 318 298 235 239 257 268 33 303 241 155 153 166 176 132 132 214 211 201 184 147 136 137 117 84 110 92
261 259 260 263 270 278 287 297 303 307 307 312 322 325 288 305 311 59 289 248 338 338 254 277 199 217 223 174 217 241 174 147 148 153 179 168 268 169 172 153 178 194 199 178 141 115 90
259 254 253 255 261 273 280 289 296 300 296 303 314 331 279 310 255 323 252 313 313 273 299 246 208 245 169 182 226 203 197 145 161 187 159 205 162 155 183 209 190 242 224 148 141 161 149
262 254 248 247 251 260 268 280 289 288 300 300 313 339 240 139 285 266 335 308 307 128 272 166 167 153 159 190 143 205 182 95 164 164 170 207 164 169 185 217 173 16 134 132 138 102 142
261 257 249 242 244 247 257 269 283 282 293 293 305 339 230 123 201 254 309 304 181 159 246 180 141 166 157 227 139 113 144 72 130 127 134 165 212 191 169 58 129 123 110 97 89 124 225
257 254 250 242 239 241 250 263 278 278 289 293 307 333 260 168 230 310 314 294 141 213 289 175 171 158 189 164 134 125 161 163 153 126 162 170 222 227 142 83 159 134 158 104 156 202 257
256 251 249 240 233 237 241 253 269 269 292 298 305 326 224 206 172 18 328 162 204 215 218 101 126 134 188 149 169 134 148 168 117 105 136 170 199 187 175 168 183 185 197 163 206 200 144
253 249 243 237 230 231 234 241 260 261 287 303 331 250 225 228 195 183 217 197 212 215 198 155 98 146 185 206 141 146 174 179 163 189 154 163 228 35 149 142 165 169 186 93 104 54 182
249 244 239 237 230 226 228 231 248 256 269 328 303 226 231 172 148 168 214 213 241 232 322 189 148 167 168 176 149 153 164 186 196 195 188 188 121 72 155 139 57 132 133 138 78 156 232
246 239 233 232 224 221 221 226 236 246 259 307 251 229 204 143 141 196 215 221 276 266 238 207 181 154 168 152 143 154 182 140 203 133 149 151 100 146 101 10 147 142 122 65 109 39 226
240 234 227 224 219 217 215 221 230 226 243 227 251 199 139 152 172 194 206 202 301 277 222 252 210 132 154 136 137 133 170 189 160 142 156 152 105 80 89 358 22 71 107 130 113 166 64
232 224 218 218 215 212 208 215 227 213 180 277 251 231 149 200 197 192 228 237 287 314 294 208 222 203 168 138 121 129 127 40 176 130 159 175 34 103 39 117 134 63 40 86 95 109 165
225 217 213 213 208 205 201 208 217 221 186 229 259 191 144 220 230 171 194 239 227 262 257 263 262 112 126 116 29 140 106 111 124 102 89 93 89 133 171 170 116 102 74 85 91 137 146
217 209 208 206 202 201 195 205 212 187 170 240 242 239 159 175 206 212 187 196 187 228 222 211 217 216 160 116 108 115 127 134 63 144 62 90 94 83 42 68 86 89 91 79 90 114 215
211 207 206 204 197 197 191 200 206 146 134 234 278 238 162 186 171 203 196 214 197 254 254 247 213 198 188 147 165 166 136 148 160 75 82 36 115 111 51 61 99 91 83 92 83 110 90
208 204 194 192 191 189 190 201 181 158 179 246 201 264 40 171 182 186 203 203 217 232 250 237 263 150 164 193 130 105 74 86 120 130 115 91 134 103 105 57 110 86 145 125 112 101 139
200 197 192 187 187 187 190 201 179 159 210 262 289 295 29 207 185 201 186 194 243 225 255 313 222 177 143 127 111 80 73 70 61 45 74 120 93 71 121 69 119 32 313 158 115 92 110
192 187 181 180 185 185 193 196 182 173 216 224 254 269 204 286 181 176 206 200 261 257 253 249 267 281 149 58 88 77 3 47 28 37 37 83 115 96 131 106 4 115 172 155 150 149 144
182 172 170 175 181 195 193 186 180 194 214 236 249 268 85 295 197 326 181 205 226 203 262 271 11 69 75 74 84 107 137 138 103 72 47 70 71 102 142 132 183 207 179 165 138 147 166
163 164 167 176 184 198 183 173 185 204 228 219 274 201 116 301 273 250 220 190 178 195 231 179 171 197 56 89 80 108 104 176 137 129 161 65 42 103 132 120 263 239 144 158 197 154 162
157 159 168 180 185 193 184 190 197 212 215 220 286 192 148 188 289 286 302 319 207 213 175 177 106 283 69 75 103 142 107 142 91 130 164 133 125 130 119 107 188 142 124 194 115 119 144
152 159 171 186 182 189 193 203 199 225 219 251 256 152 272 175 272 321 278 259 240 232 244 296 244 150 151 99 91 123 105 116 138 141 31 127 165 158 213 117 44 31 13 45 141 140 148